Location: Poughquag
(41.6090°N, 73.6820°W)
Time: 12:22:30
(UTC-04:00)

S-56A Canister/Altair - Pass Details

Date: 01 June 2020
Orbit: 633 x 2499 km, 38.9° (Epoch: 06 July)

Event Time Altitude Azimuth Distance (km) Brightness Sun altitude
Rises 12:52:06 0° 274° (W) 5,120 11.7 70.6°
Reaches altitude 10° 12:57:13 10° 255° (WSW) 4,469 11.7 70.6°
Maximum altitude 13:03:36 16° 224° (SW) 4,342 11.8 70.4°
Drops below altitude 10° 13:10:44 10° 194° (SSW) 5,052 12.2 70.2°
Sets 13:17:20 0° 175° (S) 6,159 12.4 69.9°
